Location: Mactaquac Provincial Park
(45.9573°N, 66.8897°W)
Time: 11:05:00
(UTC-03:00)

CENTAUR R/B - Visible Passes

Search period start: 28 May 2015 00:00
Search period end: 07 June 2015 00:00
Orbit: 878 x 1311 km, 63.5° (Epoch: 23 May)

Date Brightness Start Highest point End Pass type
(mag) Time Alt. Az. Time Alt. Az. Time Alt. Az.
28 May 3.9 00:10:49 10° NNW 00:17:55 44° NE 00:25:33 10° ESE visible
28 May 3.1 02:01:31 10° NW 02:09:04 61° WSW 02:12:40 34° S visible
28 May 4.6 03:55:10 10° WNW 03:58:47 13° WSW 03:59:48 13° WSW visible
28 May 5.0 21:31:10 10° NW 21:36:10 20° N 21:41:29 10° NE visible
28 May 4.3 23:22:40 10° NNW 23:29:15 34° NNE 23:36:24 10° E visible
29 May 3.0 01:13:14 10° NW 01:20:55 87° SW 01:25:22 31° SE visible
29 May 4.1 03:05:09 10° WNW 03:11:02 23° WSW 03:12:30 21° SW visible
29 May 4.6 22:34:26 10° NNW 22:40:27 27° NNE 22:46:57 10° E visible
30 May 3.3 00:25:04 10° NW 00:32:37 67° NE 00:38:09 22° SE visible
30 May 3.7 02:16:13 10° NW 02:23:10 36° WSW 02:25:18 31° SW visible
30 May 4.8 21:46:03 10° NW 21:51:31 22° NNE 21:57:24 10° ENE visible
30 May 3.7 23:36:55 10° NNW 23:44:08 48° NE 23:51:02 14° ESE visible
31 May 3.2 01:27:41 10° NW 01:35:10 55° WSW 01:38:10 37° S visible
31 May 4.8 03:22:20 10° W 03:24:48 11° WSW 03:25:19 11° WSW visible
31 May 4.2 22:48:47 10° NNW 22:55:31 36° NNE 23:02:48 10° E visible
01 Jun 3.0 00:39:22 10° NW 00:47:03 81° SW 00:51:07 33° SSE visible
01 Jun 4.3 02:31:34 10° WNW 02:37:04 20° WSW 02:38:17 19° WSW visible
01 Jun 4.5 22:00:34 10° NNW 22:06:44 28° NNE 22:13:24 10° E visible
01 Jun 3.2 23:51:10 10° NW 23:58:47 72° NE 00:04:08 24° SE visible
02 Jun 3.9 01:42:28 10° NW 01:49:13 32° WSW 01:51:18 28° SW visible
02 Jun 3.6 23:03:02 10° NW 23:10:21 52° NE 23:17:13 14° ESE visible
03 Jun 3.4 00:53:52 10° NW 01:01:16 50° WSW 01:04:22 34° S visible
03 Jun 4.0 22:14:54 10° NNW 22:21:45 38° NE 22:29:10 10° ESE visible
04 Jun 3.0 00:05:31 10° NW 00:13:10 74° SW 00:17:30 31° SSE visible
04 Jun 4.5 01:58:03 10° WNW 02:03:05 18° WSW 02:04:41 17° WSW visible
04 Jun 3.1 23:17:18 10° NW 23:24:56 78° NE 23:30:41 22° SE visible
05 Jun 4.1 01:08:45 10° NW 01:15:17 29° WSW 01:17:51 24° SW visible
05 Jun 3.5 22:29:08 10° NW 22:36:33 56° NE 22:43:54 12° ESE visible
06 Jun 3.6 00:20:04 10° NW 00:27:20 45° WSW 00:31:05 28° S visible
06 Jun 3.9 21:41:01 10° NNW 21:48:00 41° NE 21:55:32 10° ESE visible
06 Jun 3.2 23:31:40 10° NW 23:39:17 68° WSW 23:44:21 25° SSE visible
